Погода в Верховажье

Россия / Вологодская область     60°44′34″N   42°02′41″E
темп.,
°C
ветер,
м/с
пор.,
м/с
влажн.,
%
обл.,
%
осадки,
мм/ч
давл.,
гПа
погр.,
м
25 июля, вс
вс2500:00+11зюз2564100 0.0 1014122
03:00+10зюз2864100 0.0 1015208
06:00+11юз396399 0.0 1015315
09:00+17з4848100 0.0 10151601
12:00+19зюз574172 0.0 10162074
15:00+17сз2754100 0.0 1016401
18:00+20з364590 0.0 10161953
21:00+15юз2265100 0.0 101742
26 июля, пн
пн2600:00+12зюз3108374 0.0 1018252
03:00+13зюз398597 0.1 1018261
06:00+13з278371 0.1 1018214
09:00+19зсз35575 0.1 1018907
12:00+23зсз35385 0.0 10182037
15:00+23сз4738100 0.0 10162778
18:00+20зсз25579 0.1 1017951
21:00+13з24975 4.8 1018105
27 июля, вт
вт2700:00+12сз23975 0.0 101949
03:00+12ссз389790 0.0 1020284
06:00+10с398939 0.0 1021424
09:00+14с355517 0.0 1021878
12:00+18ссз35425 0.0 10201466
15:00+20ссз34375 0.0 10191782
18:00+20ссз25429 0.0 10181712
21:00+13зсз116680 0.0 101811
28 июля, ср
ср2800:00+11юз22745 0.0 101828
03:00+10зюз236974 0.0 101764
06:00+13зюз28665 0.0 1015204
09:00+21зюз35475 0.0 1013710
12:00+26з58375 0.0 10102235
15:00+25зсз3743100 0.0 1008796
18:00+24ссз155134 0.0 1006553
21:00+14ю229858 1.8 100742
29 июля, чт
чт2900:00+14юз359771 0.2 100784
03:00+13зюз129449 0.2 100528
06:00+15ююз129466 0.3 100475
09:00+20ююз3573100 0.4 1003451
12:00+25зюз3646100 0.0 10011468
15:00+22з3666100 0.1 1001475
18:00+19юз397479 0.1 999494
21:00+16юз3129788 0.7 999510